COSMOS 1275 DEB

Satellite information

Favourite Embed

Satellite Type and Status

DEBRISIN ORBIT

Key statistics

Satellite COSMOS 1275 DEB at a glance.

Uptime

16104

Days in orbit

Revolutions

≈ 14.0

Per day

Orbit

LEO

Low Earth Orbit

Inclination

82.9

Latest

Satellite identification and parameters

Extended collection of information and parameters for COSMOS 1275 DEB.

Object identification

Identified? True

Debris? True

Object name: COSMOS 1275 DEB

International designator: 1981-053SE

Object number (NORAD): 42166

Object ID (CCSDS): 42166

Country: COMMONWEALTH OF INDEPENDENT STATES (CIS)

Current information (Y/N): Y

RCS size: SMALL

Orbital parameters

Period: 103.13 minutes

Inclination: 82.8886 deg

SMA: 7284.783 km

Apoapsis: 1011.712 km

Periapsis: 801.584 km

RAAN: 157.747 deg

Eccentricy: 0.0144224

Argument of periapsis: 114.4701 deg

Mean anomaly: 247.1587 deg

Mean motion: 13.96297182 rev/day

Mean motion (dot): 0.00002577 rev/day2

B* drag term: 0.0017038 1/REarth

Two-line elements (TLE)

Creation date: July 4, 2025, 6:46 a.m.

Reference frame: TEME

Reference center: EARTH

Epoch: July 4, 2025, 4:57 a.m. UTC

TLE line 0: 0 COSMOS 1275 DEB

TLE line 1: 1 42166U 81053SE 25185.20680082 .00002577 00000-0 17038-2 0 9995

TLE line 2: 2 42166 82.8886 157.7470 0144224 114.4701 247.1587 13.96297182587436

Live tracking on map

Real-time ground track for satellite COSMOS 1275 DEB.

In-orbit conjunctions

A list of the most updated potential collisions computed for object COSMOS 1275 DEB.

Target Orbit TCA Probability of collision Miss distance Type
DELTA 1 DEB SSO 2024-11-14 07:47:10 0.000160007 269.0 (m) DEBRIS

Associated space launch

Navigation satellite providing location information for the Tsiklon-B navigation system

COSMOS 1275 DEB was lifted into orbit during the mission ‘Kosmos-3M | Parus 27’, on board a Kosmos-3M space rocket.

The launch took place on June 4, 1981, 3:41 p.m. from 132/2.

For more information about the launch, click the button.

Launch to space Kosmos-3M | Parus 27
Kosmos-3M | Parus 27

Agency: N/A

Status: Launch Successful

Launch date: June 4, 1981, 3:41 p.m. UTC

Rocket: Kosmos-3M

Launch pad: 132/2

Location: Plesetsk Cosmodrome, Russian Federation

...

Latest news about this satellite

There are no fresh news available about this satellite. Check back as we update our databases every day.


Newsletter sign-up

Weekly statistics, charts and insights to help you stay on top of the space industry.